This is the latest recevied weather packets stored in our database for station/object DK9HI-WX. If no packets are shown the sender has not sent any weather packets the latest 10 day(s).
| Time | Temp. | Humidity | Pressure | Rain* | Wind** | Luminosity | Snow |
|---|---|---|---|---|---|---|---|
| 1787935219 | 23.33° C | 100% | 1008.8 hPa | - | - | - | - |
| 1787934619 | 23.89° C | 100% | 1008.9 hPa | - | - | - | - |
| 1787934020 | 23.89° C | 100% | 1009 hPa | - | - | - | - |
| 1787933427 | 23.33° C | 100% | 1009.1 hPa | - | - | - | - |
| 1787932819 | 23.89° C | 100% | 1009 hPa | - | - | - | - |
| 1787932219 | 23.89° C | 100% | 1008.7 hPa | - | - | - | - |
| 1787931619 | 23.89° C | 100% | 1008.3 hPa | - | - | - | - |
| 1787931022 | 23.89° C | 100% | 1008.8 hPa | - | - | - | - |
| 1787930419 | 23.89° C | 100% | 1008.9 hPa | - | - | - | - |
| 1787929819 | 24.44° C | 100% | 1009 hPa | - | - | - | - |
| 1787929219 | 24.44° C | 100% | 1008.9 hPa | - | - | - | - |
| 1787928619 | 24.44° C | 100% | 1008.9 hPa | - | - | - | - |
| 1787928019 | 23.89° C | 100% | 1008.5 hPa | - | - | - | - |
| 1787927419 | 23.89° C | 100% | 1009 hPa | - | - | - | - |
| 1787926819 | 24.44° C | 100% | 1009.1 hPa | - | - | - | - |
| 1787926219 | 23.89° C | 100% | 1009.1 hPa | - | - | - | - |
| 1787925619 | 23.33° C | 100% | 1009.3 hPa | - | - | - | - |
| 1787925019 | 23.33° C | 100% | 1009.3 hPa | - | - | - | - |
| 1787924419 | 23.33° C | 100% | 1009.2 hPa | - | - | - | - |
| 1787923819 | 23.89° C | 99% | 1009.2 hPa | - | - | - | - |
| 1787923219 | 23.89° C | 97% | 1009.2 hPa | - | - | - | - |
| 1787922619 | 23.89° C | 93% | 1009.3 hPa | - | - | - | - |
| 1787922019 | 24.44° C | 89% | 1009.4 hPa | - | - | - | - |
| 1787921419 | 25° C | 81% | 1008.6 hPa | - | - | - | - |
| 1787920819 | 25.56° C | 73% | 1009.2 hPa | - | - | - | - |
* Rain since midnight (hover to see other rain measurements)
** Current wind speed in m/s (hover to see current wind gust speed)